パンスターズ彗星

P/2017 S8 ( PanSTARRS )

English version
Home page
Updated on January 8, 2018

---------------------------------------------------------------------

・ プロフィール

発見日 2017年9月30日
発見光度 20.2等
発見者 Pan-STARRS 1 telescope (Haleakala)

・ 写真集

・ 軌道要素

Epoch 2018 Feb. 11.0 TT = JDT 2458160.5
T 2018 Jan. 28.63202 TT                                 MPCW
q   1.6832693            (2000.0)            P               Q
n   0.21310198     Peri.  254.54868     +0.08973912     -0.99074119
a   2.7759463      Node   191.80733     +0.99160143     +0.07931235
e   0.3936232      Incl.   29.85969     -0.09313157     -0.11018823
P   4.63
From 146 observations 2017 Sept. 25-Nov. 23, mean residual 0".6.

・ 光度変化

        m1 = 16.0 + 5 logΔ + 10.0 log r

---------------------------------------------------------------------

軌道要素はM.P.E.C. 2017-X08に掲載されたものです。
光度グラフはComet for Windowsで作成したものです。

---------------------------------------------------------------------

Copyright(C) Seiichi Yoshida (comet@aerith.net). All rights reserved.